GFSCGP_sfc_thetae_105.txt.gz
Theta_e
291 287 285 289 291 291 291 289 290 293 296 295 296 296 297 299 300 300 301 301 302 303 308 309 311 314 316 317 323 326 327 328 327 323 322 323 324 325 326 328 328 327 328 328
288 284 290 291 291 290 290 289 289 292 295 294 294 293 296 296 297 298 299 299 301 304 306 309 311 315 319 319 323 325 326 325 328 326 326 327 326 325 325 327 327 327 328 327
286 289 292 289 288 287 289 288 288 288 291 291 289 288 290 294 295 296 298 301 303 304 306 311 311 311 317 320 322 323 325 323 328 328 326 325 322 322 321 322 325 326 328 325
287 291 289 287 286 288 284 290 290 289 287 283 289 281 288 293 294 297 299 301 302 308 310 310 311 312 313 318 323 323 323 322 325 325 322 322 320 318 319 320 323 326 328 324
288 290 289 286 286 289 286 290 289 289 286 284 285 284 288 291 292 295 299 303 307 308 309 309 310 312 315 318 321 322 321 321 323 323 323 321 318 319 319 320 319 323 325 325
290 292 292 291 291 290 291 288 288 287 285 280 284 285 286 290 293 297 302 305 306 307 308 309 312 313 314 320 322 321 319 319 321 322 320 317 317 319 318 316 316 319 319 321
285 287 290 292 288 290 291 288 281 280 279 280 286 283 288 294 297 301 302 304 305 306 307 309 310 311 312 316 320 320 318 317 319 319 317 316 318 318 317 316 315 317 317 319
279 277 286 290 290 287 287 288 283 276 278 281 286 282 289 297 302 303 303 304 305 306 307 308 309 310 312 317 319 318 317 316 318 317 315 315 319 319 319 318 317 317 319 319
281 281 288 289 291 291 286 283 290 284 285 281 285 289 293 300 300 301 301 302 304 306 307 308 310 311 312 315 319 318 316 316 316 316 316 316 318 319 319 318 316 316 319 319
287 282 289 290 291 290 289 291 284 285 277 276 282 284 286 293 295 300 300 302 303 305 306 308 310 311 313 315 319 318 317 316 316 315 318 316 317 319 319 318 314 316 319 319
289 287 286 290 287 285 286 285 287 287 285 279 278 283 292 295 298 299 301 303 303 305 306 308 310 311 312 314 319 317 317 316 315 316 317 314 315 317 318 317 317 317 319 318
290 287 283 285 291 295 290 287 287 282 281 284 283 283 298 298 300 301 302 304 305 306 307 307 307 307 312 314 317 316 316 316 315 316 315 312 314 316 316 316 317 319 317 317
290 285 282 283 289 291 289 290 289 288 287 283 281 284 297 300 300 302 303 305 305 305 306 306 304 304 309 315 314 315 315 315 315 315 313 311 312 314 315 316 317 317 318 315
293 286 283 280 282 286 285 287 289 289 284 284 285 287 293 297 299 302 304 306 306 306 305 303 301 301 304 315 314 314 314 315 315 314 312 310 311 314 315 316 316 316 317 317
290 283 285 286 287 287 287 287 287 286 286 284 286 287 291 296 299 301 303 304 303 302 301 300 299 298 299 303 311 314 315 315 316 314 312 311 312 312 314 315 315 315 315 316
289 283 284 283 287 287 284 287 288 289 288 289 289 288 297 300 301 298 298 299 298 298 297 297 296 295 295 297 301 314 314 315 316 314 313 313 312 312 313 314 314 315 315 315
287 285 283 279 285 284 280 285 287 288 291 291 286 291 297 296 295 294 295 295 295 294 294 294 293 292 293 295 299 303 312 317 315 315 315 314 312 312 313 314 314 314 314 315
285 284 284 280 282 274 287 294 293 291 291 292 292 294 294 296 295 294 294 293 292 291 292 292 291 291 291 293 295 298 310 316 315 316 315 315 314 313 313 313 314 314 314 313
289 286 281 278 279 282 287 291 291 290 288 293 292 295 295 296 296 292 292 292 290 290 290 291 290 290 290 291 292 293 294 296 297 297 298 301 304 310 314 312 312 315 314 313
289 288 284 281 276 274 285 293 295 295 284 293 293 294 295 295 289 289 291 289 289 289 289 289 289 288 288 289 290 290 289 289 290 291 292 293 295 297 298 300 310 314 314 313
282 284 281 280 278 281 289 291 295 283 284 292 293 292 293 290 290 290 290 288 287 287 287 289 288 286 286 287 288 286 286 286 287 288 289 289 290 291 292 294 294 296 308 293
282 280 280 281 278 275 289 291 287 288 290 290 289 290 290 290 289 288 287 285 285 284 285 286 286 285 285 286 286 284 283 286 286 287 286 286 287 288 289 289 290 290 289 287
282 285 283 283 283 288 290 288 289 291 288 287 288 289 289 287 286 285 284 283 283 282 283 285 284 284 284 284 284 283 283 285 285 285 284 284 285 285 286 286 286 286 286 284
288 289 285 286 287 287 287 287 288 288 286 286 286 287 287 284 284 282 282 281 281 281 281 283 283 282 282 283 282 283 284 285 285 283 283 283 283 283 284 284 284 284 284 284
286 287 283 284 286 287 286 287 286 285 286 284 283 283 283 284 281 281 280 279 280 280 281 281 281 281 281 281 281 282 283 284 283 283 282 282 282 282 281 282 282 282 283 283
285 281 280 279 284 284 283 284 285 282 281 281 282 280 280 281 280 280 279 279 279 279 279 279 279 280 280 280 280 281 281 282 283 281 281 281 281 281 281 280 280 283 283 283

GFSCGP_sfc_thetae_108.txt.gz
Theta_e
293 289 288 292 295 295 295 293 291 295 299 299 299 300 303 307 307 306 308 309 310 311 313 313 315 320 321 323 323 323 327 333 334 333 330 328 327 330 331 334 335 336 334 336
290 287 293 295 294 292 290 288 290 293 297 297 297 297 302 303 304 305 305 306 307 308 308 312 317 320 322 324 325 326 328 332 334 331 330 331 329 329 331 332 335 333 334 333
288 290 293 292 291 290 291 289 288 288 293 296 295 293 296 300 301 302 303 304 305 306 309 313 316 319 322 323 325 326 328 331 333 334 329 330 330 329 328 329 330 331 332 331
291 294 291 290 289 290 287 293 291 290 289 286 294 286 293 296 298 301 303 305 307 310 313 315 316 318 321 323 325 327 328 330 332 333 328 328 327 324 328 327 328 329 330 329
290 290 290 290 290 291 289 293 290 290 289 288 289 286 291 296 295 299 303 306 311 313 314 314 316 318 320 322 326 327 328 329 329 330 328 329 330 330 331 330 328 326 328 329
293 298 295 293 293 293 293 290 290 290 288 282 288 287 289 294 297 300 305 309 310 312 313 314 316 318 319 322 325 328 327 327 327 326 328 330 331 330 327 324 323 322 324 327
290 292 295 297 291 293 291 289 284 282 282 282 291 288 291 296 300 302 305 307 309 311 311 313 314 316 317 319 322 325 326 324 324 324 325 329 331 329 328 327 324 320 322 324
284 282 291 295 294 290 289 289 284 277 281 284 290 284 290 298 304 306 306 307 308 310 311 312 313 315 317 318 320 323 324 322 321 321 322 326 328 329 327 326 323 322 322 326
284 284 291 293 295 294 290 287 293 287 288 285 288 291 297 302 303 304 305 305 307 309 311 312 314 316 317 317 320 322 322 321 321 320 320 321 325 328 326 326 325 323 324 324
290 284 289 291 293 293 292 294 285 288 279 278 284 287 289 296 299 302 303 304 306 309 311 312 313 314 315 315 318 322 324 319 321 319 318 318 325 327 327 325 320 322 322 324
294 290 288 291 289 286 287 288 289 289 288 281 281 286 297 297 300 300 302 305 307 310 311 311 312 312 311 314 312 322 320 318 319 318 317 320 324 325 325 323 320 320 323 323
293 291 286 288 295 295 291 288 290 284 283 286 286 286 300 301 302 303 304 307 310 311 311 310 310 308 307 305 302 317 318 318 319 318 318 320 321 324 321 321 319 320 321 322
292 289 283 285 290 294 291 293 292 292 291 287 285 288 302 302 303 305 305 307 308 309 309 309 308 306 303 300 300 315 318 318 318 318 317 318 318 320 319 320 320 320 321 322
295 289 285 282 286 290 288 291 293 292 287 287 288 290 296 298 300 303 305 305 303 304 305 304 305 304 299 298 298 303 317 318 317 316 316 316 316 318 319 319 319 319 319 319
292 286 288 289 290 290 290 290 291 290 291 287 289 290 295 298 301 301 301 300 301 300 300 299 298 299 296 295 296 298 316 315 315 314 314 314 315 317 319 318 319 319 318 318
292 286 286 285 289 289 288 290 291 291 291 291 291 291 299 301 299 297 298 298 296 296 296 297 295 294 293 293 294 296 312 315 315 314 313 314 314 314 316 318 318 318 317 318
287 287 285 282 287 287 283 288 290 292 293 293 289 294 297 296 295 293 295 295 293 292 293 293 291 291 291 292 293 294 300 315 314 314 314 314 315 314 315 316 316 316 317 318
287 286 287 283 284 276 290 297 295 292 293 295 294 295 296 296 294 292 293 291 290 290 290 291 290 289 289 290 292 293 301 311 310 309 311 314 314 314 316 315 315 316 317 316
292 287 284 281 281 284 287 291 292 291 289 295 293 295 297 297 294 290 291 290 289 288 288 289 290 289 288 288 289 289 291 294 295 295 296 298 302 307 312 313 314 317 316 317
291 290 285 284 278 276 288 292 298 298 285 294 295 294 295 297 290 287 290 289 288 287 288 288 288 287 286 286 288 288 287 288 288 290 291 293 296 297 297 298 301 311 315 314
285 286 283 282 281 284 291 292 296 285 285 292 293 293 293 289 289 289 290 287 286 286 286 287 287 286 286 286 286 286 286 285 286 288 289 289 290 291 292 293 293 296 299 291
284 283 284 284 280 278 291 294 289 290 292 292 291 292 291 290 288 287 286 284 284 284 284 285 285 285 285 286 287 285 284 285 286 286 287 287 288 288 289 289 289 290 288 286
284 287 284 286 285 289 290 288 291 294 292 291 291 291 290 288 286 285 284 283 283 282 283 284 284 284 285 285 285 284 286 287 286 285 285 285 286 286 287 287 287 286 286 285
290 290 286 286 286 287 287 289 289 291 290 290 291 290 290 286 285 283 282 282 282 282 281 282 282 281 282 284 284 284 286 287 286 285 284 284 283 283 284 284 284 284 284 283
288 289 284 285 286 285 285 286 287 287 288 288 287 288 287 287 284 283 282 281 281 281 281 281 280 280 280 281 282 284 285 287 286 285 285 284 283 282 282 282 282 281 282 283
287 282 282 282 284 284 284 285 286 284 284 285 286 284 285 285 284 284 282 282 281 280 281 280 280 279 279 280 280 281 284 285 287 285 284 283 283 283 282 281 281 283 283 283

GFSCGP_sfc_thetae_111.txt.gz
Theta_e
295 290 288 292 295 298 297 295 295 299 303 302 301 301 303 306 308 309 310 311 312 313 316 318 320 319 320 323 323 323 324 331 338 336 338 340 333 334 335 339 339 339 337 336
292 287 293 296 296 296 296 294 294 299 300 299 299 299 303 305 307 309 309 310 311 313 314 316 316 318 321 323 324 326 326 327 330 334 336 338 332 332 334 336 339 338 337 335
289 291 295 295 294 293 294 293 293 293 296 296 296 295 298 302 304 306 309 309 310 310 310 312 313 319 322 323 325 325 327 328 330 334 337 334 333 331 330 331 334 336 336 334
292 295 293 292 292 294 290 296 294 292 290 285 295 287 295 299 299 303 305 306 307 308 309 312 316 318 321 323 325 328 328 328 330 335 334 330 328 326 328 331 333 333 336 334
291 292 292 291 292 295 292 296 293 293 290 290 291 289 294 299 297 300 303 305 308 310 314 314 316 317 318 321 324 328 329 329 330 332 334 331 328 331 333 333 332 330 333 331
293 298 296 294 295 296 296 292 292 292 290 284 290 289 290 292 297 300 303 306 310 312 313 314 316 317 318 320 323 326 327 328 330 331 333 331 328 332 331 332 331 328 331 332
292 293 296 298 294 296 294 290 281 279 281 282 291 288 291 297 299 302 304 307 310 312 311 312 313 314 316 318 321 322 323 326 329 330 329 330 330 332 333 333 331 328 327 328
285 283 293 298 294 291 291 290 284 278 279 282 291 286 292 299 302 306 307 308 309 310 312 312 313 315 317 318 320 321 322 323 327 328 325 329 329 330 331 331 330 328 327 328
285 286 296 297 297 296 291 288 294 287 290 286 289 292 298 300 302 305 305 305 307 308 310 312 314 316 316 316 317 319 319 321 325 327 325 327 328 328 329 333 332 328 327 326
292 284 292 294 297 297 294 295 287 288 279 279 286 288 290 296 299 302 302 303 305 308 310 312 313 314 314 314 315 317 319 321 324 325 324 325 324 329 330 332 328 327 325 326
295 291 288 292 289 289 290 290 291 290 288 282 281 286 298 297 300 301 303 305 306 308 310 312 311 312 312 312 312 313 314 321 324 323 323 323 322 326 328 329 327 326 325 325
294 292 286 289 295 296 293 291 292 286 284 287 286 286 301 302 302 302 303 305 308 311 309 310 311 312 311 309 308 307 306 316 323 321 321 320 321 324 326 326 324 325 325 325
292 290 283 286 292 294 290 291 292 292 291 286 283 286 301 303 303 304 305 307 309 308 307 308 308 307 308 307 306 302 301 302 320 319 318 318 319 322 323 323 322 322 324 322
295 290 286 283 286 291 289 290 291 291 286 287 288 290 297 300 300 302 304 304 304 305 304 304 304 304 305 305 302 298 298 299 318 319 318 317 319 321 321 321 322 320 322 321
293 287 289 289 290 292 290 291 292 290 291 287 290 291 295 299 301 300 300 300 300 299 299 300 300 299 301 301 299 296 297 299 316 317 316 316 318 319 321 319 320 320 321 321
292 287 289 287 290 291 289 291 292 292 292 291 292 291 302 302 301 298 297 298 296 295 295 296 296 296 296 296 293 293 294 296 302 314 313 315 316 318 320 319 318 318 320 321
289 287 287 283 288 288 285 290 291 292 293 293 289 295 300 296 295 293 294 293 292 292 293 292 292 292 293 292 291 291 292 293 303 313 313 314 314 316 317 317 317 318 317 319
289 288 287 284 285 278 290 297 295 293 295 296 295 297 299 296 293 291 291 291 291 291 291 289 289 289 290 290 291 291 291 293 306 308 310 314 315 315 315 316 316 317 318 317
292 289 285 282 283 286 289 294 293 292 290 296 295 296 297 294 292 289 291 292 291 289 289 288 289 288 288 287 289 289 288 288 292 293 295 299 304 309 315 314 316 317 317 317
292 293 287 285 280 277 286 292 296 296 287 294 295 294 295 296 290 287 291 292 290 289 288 287 287 287 286 285 287 286 285 286 286 288 290 292 295 297 298 299 303 307 316 311
286 287 284 284 282 286 292 295 295 285 284 293 295 294 294 290 290 290 291 289 289 287 286 287 287 286 285 285 285 285 285 284 285 287 288 288 289 291 292 294 295 296 293 290
285 284 284 286 282 279 293 294 286 288 293 293 293 293 290 290 290 289 288 288 287 285 284 285 285 285 285 285 285 285 284 285 285 285 285 286 285 286 289 289 289 289 288 286
285 287 283 287 284 289 291 289 291 293 292 293 292 292 292 290 289 288 287 286 284 284 283 284 283 283 284 285 285 285 285 286 285 284 284 284 285 285 286 286 286 286 285 284
291 293 288 288 284 285 287 289 291 292 292 292 293 292 292 289 289 287 286 284 284 283 283 283 282 281 281 283 284 285 288 288 286 284 283 283 282 282 283 283 283 283 283 282
290 291 286 285 286 287 287 287 289 289 290 291 290 290 290 290 289 288 286 285 284 283 283 282 281 281 280 281 282 284 286 288 285 285 284 284 283 282 281 281 281 281 282 282
289 283 284 282 284 286 285 287 288 286 286 288 288 288 288 288 287 288 286 285 285 284 284 283 281 281 281 281 282 283 284 285 285 283 283 283 282 282 281 280 280 283 283 283

GFSCGP_sfc_thetae_114.txt.gz
Theta_e
295 289 286 288 294 296 294 294 294 298 302 300 300 300 302 306 306 306 309 310 311 313 316 318 319 320 324 322 322 324 328 338 340 340 340 339 338 337 336 337 338 336 336 337
289 287 290 292 293 292 293 292 294 299 302 299 299 299 303 305 306 306 308 309 310 312 314 316 318 320 320 321 325 326 326 326 332 337 337 339 339 337 335 335 337 337 337 336
284 290 292 291 289 290 291 291 293 294 296 296 297 295 296 303 306 307 309 311 311 311 312 314 316 319 322 323 325 324 325 326 328 327 334 336 335 332 330 331 331 336 336 335
289 294 290 289 288 290 289 295 295 295 292 286 296 284 293 298 300 303 304 306 309 311 311 311 314 317 320 323 326 325 327 327 327 331 329 333 329 327 329 330 330 333 334 333
287 291 290 288 288 292 291 296 295 294 291 289 290 286 291 296 296 299 303 305 307 308 308 310 315 317 319 322 325 325 327 328 328 329 330 333 330 330 329 328 328 329 331 332
290 296 295 292 294 294 296 294 294 293 290 282 287 287 288 293 297 299 302 304 307 310 312 313 316 317 319 321 323 324 324 323 328 329 330 332 329 328 327 328 326 328 330 330
288 293 297 297 291 294 294 290 282 280 280 280 290 287 290 297 300 301 302 303 310 312 312 311 312 313 316 318 320 320 320 319 323 329 328 331 331 329 328 329 329 327 327 327
281 281 291 297 293 290 291 289 283 276 278 281 289 285 290 299 301 303 305 309 310 310 312 312 313 315 315 316 316 316 315 316 320 320 327 328 331 329 328 330 330 327 326 327
285 285 294 296 297 295 290 287 293 287 289 285 287 290 297 299 300 303 305 307 306 308 310 311 313 314 313 313 313 313 313 314 317 318 321 326 327 328 327 331 329 328 327 327
291 285 293 293 297 296 293 295 286 287 279 279 285 287 288 294 298 302 303 304 306 308 310 311 311 311 312 313 312 312 311 311 314 315 319 325 324 326 328 329 327 327 327 325
293 289 289 294 291 290 291 289 290 290 288 281 280 284 297 297 300 299 302 305 307 309 310 310 311 311 311 312 310 309 307 306 307 309 316 324 323 325 327 327 326 326 326 325
293 290 284 288 294 295 294 291 291 285 283 286 286 285 300 301 302 303 305 308 308 308 307 308 308 307 307 308 307 305 304 303 303 305 319 322 323 324 325 325 325 324 323 324
292 287 281 285 291 293 289 290 291 292 291 285 283 285 300 301 299 305 304 304 304 303 303 303 304 303 303 304 304 302 302 300 300 303 314 319 320 321 322 323 322 323 323 322
296 289 285 280 284 290 288 288 290 289 286 286 287 289 296 298 299 300 300 301 300 300 300 300 300 300 300 300 300 299 298 299 298 301 312 317 317 319 320 321 321 321 321 320
293 285 287 288 289 287 290 290 291 287 289 286 289 290 295 297 296 298 299 299 298 297 297 297 296 296 296 296 296 295 295 296 296 297 305 316 318 319 320 319 319 320 320 319
292 285 288 286 289 290 287 290 290 290 291 291 291 291 298 299 299 296 295 295 294 294 294 294 293 292 292 292 291 292 292 293 294 297 303 317 317 317 318 318 318 319 318 318
289 287 285 282 288 288 284 289 290 291 293 292 288 294 298 294 293 292 292 292 291 291 291 290 290 289 289 289 290 290 292 293 292 299 311 315 316 316 317 317 317 317 317 318
288 287 287 283 286 277 290 295 296 293 295 296 296 296 295 291 291 291 292 291 289 289 289 288 288 287 287 288 288 290 290 290 290 291 296 307 314 315 317 316 316 316 317 316
293 289 284 282 282 286 287 290 290 290 290 295 294 295 293 292 292 289 291 292 289 288 288 287 288 287 287 287 288 288 288 288 288 287 289 292 298 313 315 315 315 316 315 315
292 292 286 284 279 277 285 292 296 296 284 287 294 294 295 294 289 286 290 290 289 287 287 286 287 286 285 285 287 286 285 285 284 285 286 289 292 296 301 305 308 307 307 299
286 286 283 283 281 284 288 293 296 284 282 290 292 291 290 287 288 289 290 289 288 286 285 286 286 285 284 286 285 285 284 284 284 285 286 287 287 289 291 293 295 295 292 288
283 282 280 283 281 278 289 292 285 288 291 292 291 291 289 289 290 289 288 287 285 284 284 284 283 283 284 285 284 284 284 284 285 284 284 284 285 285 288 288 288 289 287 285
283 287 283 284 282 287 289 288 290 292 290 291 291 291 291 289 288 288 286 286 284 283 283 283 282 282 282 283 283 283 284 285 285 283 282 283 284 284 285 285 285 285 284 283
290 292 286 286 284 285 286 289 290 290 290 291 291 291 291 289 289 288 287 285 283 283 282 283 282 281 280 282 283 284 285 286 285 283 282 282 281 281 283 283 283 282 282 281
289 290 286 284 285 287 285 287 288 289 289 290 290 289 289 289 288 287 286 285 285 284 284 282 281 280 280 282 282 283 284 286 284 283 283 281 281 280 280 281 281 281 282 282
287 283 283 280 283 285 283 286 288 285 285 286 287 287 287 287 286 287 284 284 284 283 283 281 281 281 280 281 281 282 284 284 283 282 282 282 281 280 279 278 279 283 283 284

GFSCGP_sfc_thetae_117.txt.gz
Theta_e
291 283 282 286 287 287 286 286 286 290 296 295 295 296 298 299 301 300 301 302 303 306 309 311 310 310 308 311 314 324 336 337 338 335 333 331 334 333 330 333 335 336 336 337
288 282 286 289 291 288 285 284 286 292 296 296 295 295 298 299 299 302 301 300 302 304 307 310 310 309 310 313 315 316 327 337 338 337 336 334 332 332 334 330 332 334 332 334
285 286 290 287 287 286 284 283 285 287 292 296 293 291 294 299 299 301 303 303 304 305 305 308 311 309 310 313 314 315 317 320 329 335 332 329 328 326 326 326 328 331 332 332
284 288 286 285 284 287 281 287 287 288 287 286 294 281 291 297 296 297 299 299 301 305 307 308 312 310 310 312 315 317 320 320 321 320 326 327 326 322 324 325 326 330 333 333
284 288 287 285 286 290 284 288 287 288 288 288 289 285 286 292 291 295 297 300 301 304 305 307 311 311 311 313 314 316 319 319 320 320 321 327 324 327 324 324 324 325 331 333
287 293 291 289 292 291 290 287 288 291 289 280 285 284 283 287 291 295 298 302 304 303 307 311 311 311 312 312 312 312 312 313 316 319 319 326 325 324 322 323 324 326 327 330
287 288 293 295 291 293 288 284 280 279 279 277 287 284 286 292 296 297 298 301 305 306 307 308 309 309 309 309 309 310 311 310 311 313 315 317 325 324 323 324 324 324 325 327
281 280 289 294 291 287 286 287 279 274 275 278 287 281 285 294 297 299 301 305 305 305 308 309 308 307 307 308 308 307 308 308 309 311 313 314 316 326 325 326 327 325 326 328
283 283 292 294 295 293 287 284 289 284 286 281 283 286 292 296 298 301 303 303 302 306 307 306 307 307 306 306 307 306 305 306 306 306 308 309 314 322 326 326 327 327 329 328
289 282 290 293 296 294 290 291 283 286 278 278 284 284 286 293 297 301 301 303 305 306 306 306 305 306 307 307 305 305 303 303 303 303 303 306 309 313 326 324 323 326 327 327
290 288 286 290 290 288 288 286 289 288 286 279 279 283 296 296 298 300 302 303 303 302 302 302 303 303 303 303 303 302 301 300 300 301 300 302 303 311 323 322 322 324 326 325
292 286 282 285 292 294 293 289 289 282 282 284 283 283 299 300 302 303 302 302 301 300 300 300 300 299 299 299 299 298 298 297 298 298 298 301 303 319 321 321 322 325 324 324
290 285 278 282 287 292 289 290 291 290 289 283 280 285 300 299 299 299 297 298 298 298 297 297 296 295 296 296 296 295 295 295 295 296 296 299 302 320 320 321 321 324 323 323
294 288 283 277 281 286 284 289 292 289 283 284 286 289 292 296 295 296 296 296 295 295 295 294 293 292 292 293 293 292 293 294 294 294 294 297 300 317 320 321 319 322 322 321
288 283 286 287 289 287 287 289 289 287 288 284 288 290 292 292 293 294 294 293 292 292 291 291 290 290 290 290 290 290 291 292 293 293 294 296 300 315 319 320 320 321 321 319
289 283 286 284 289 288 287 289 289 290 290 290 291 291 296 296 295 291 291 291 289 289 289 289 289 289 288 288 288 289 290 290 292 292 293 295 304 315 317 318 318 319 318 318
285 284 283 281 287 287 284 287 289 289 291 292 287 291 293 290 289 289 289 288 288 288 288 288 287 286 287 287 288 287 289 290 290 291 292 293 295 316 317 318 318 317 317 317
285 284 284 280 283 276 286 292 293 288 288 290 292 292 291 289 289 289 289 287 287 287 286 286 286 286 286 287 287 288 288 288 288 288 289 290 291 300 317 317 316 317 316 315
291 286 280 277 278 285 285 286 287 287 285 288 290 291 289 289 289 286 289 288 286 286 286 286 287 286 285 286 286 287 286 286 285 285 286 288 290 292 313 315 315 316 316 314
291 289 282 279 277 275 282 287 291 291 279 289 288 288 290 291 285 283 287 287 285 285 285 285 286 285 284 284 285 285 285 284 283 284 285 287 288 289 291 308 314 313 304 296
281 282 279 278 278 282 285 289 291 280 280 289 289 288 287 284 285 287 287 285 285 284 284 284 284 283 283 284 284 283 284 283 283 284 284 285 286 288 287 291 300 296 291 288
280 277 274 279 277 275 288 287 282 286 290 290 290 289 288 288 288 287 286 284 284 282 282 283 282 282 283 283 283 282 283 284 284 283 282 282 284 285 286 286 288 288 287 284
281 284 281 281 280 286 287 287 289 290 287 288 289 290 289 288 287 286 285 283 283 282 282 283 282 281 282 282 282 281 283 284 284 282 281 280 282 283 285 284 284 283 284 283
288 290 282 284 284 284 285 286 288 288 288 289 288 287 289 287 287 285 285 284 283 282 281 281 281 279 279 280 282 283 284 285 284 282 281 280 280 281 282 283 283 282 282 281
285 285 279 282 283 284 284 285 286 286 287 287 288 286 286 286 285 284 283 283 282 282 281 280 280 278 278 280 281 283 283 284 283 283 282 280 279 279 280 281 282 282 282 282
285 281 280 278 283 283 282 285 285 283 284 285 285 285 285 285 284 283 282 282 281 280 280 279 278 279 278 280 281 282 283 283 282 282 282 281 281 279 279 279 279 283 284 284

GFSCGP_sfc_thetae_120.txt.gz
Theta_e
290 282 280 283 285 286 285 282 281 284 288 287 288 291 295 298 298 300 301 300 301 303 307 306 307 308 306 305 308 328 330 334 337 336 334 331 332 332 333 335 337 336 336 336
285 282 288 289 288 285 283 282 282 285 288 287 288 289 294 297 298 300 300 298 301 300 304 306 307 304 306 309 311 326 331 333 336 336 336 333 331 330 333 333 334 336 334 335
283 286 290 288 286 284 283 281 281 282 285 287 290 289 292 297 298 298 299 299 300 300 302 305 307 306 310 311 317 329 334 335 336 335 331 328 328 326 326 325 330 333 334 334
284 288 286 285 284 286 279 285 285 284 282 277 290 280 287 293 296 296 297 296 297 300 303 305 306 307 310 310 315 318 321 322 324 327 328 324 327 327 326 328 329 330 332 332
283 286 286 285 287 290 283 287 284 285 282 281 284 284 287 290 291 296 295 296 297 299 303 309 309 309 309 309 309 311 312 313 317 318 320 326 325 326 323 323 326 328 330 332
286 291 289 288 291 291 291 286 286 285 283 275 282 284 283 286 292 294 295 297 298 306 309 309 309 308 306 307 307 308 308 308 311 313 314 317 320 323 322 322 323 323 326 331
287 289 293 294 289 292 289 283 275 274 275 277 286 285 287 290 292 294 296 298 303 307 307 306 305 305 305 304 305 306 306 306 307 307 307 309 310 313 321 323 325 325 324 322
280 278 289 293 289 288 287 284 276 271 275 277 286 280 284 292 296 296 298 303 306 305 305 304 304 304 304 304 303 303 303 303 304 304 303 304 306 308 313 323 324 325 325 326
282 282 291 292 293 293 285 280 286 283 285 279 280 283 289 296 296 296 301 302 302 302 302 302 303 303 302 301 301 301 301 301 301 301 301 301 302 304 308 312 325 326 326 325
287 281 290 291 294 294 289 290 282 284 276 275 280 281 285 293 295 298 297 297 297 298 298 298 298 299 300 300 299 299 299 298 298 298 298 299 299 301 304 308 313 325 326 325
289 286 285 291 288 286 287 285 286 287 283 278 278 284 296 297 297 296 296 296 296 296 296 295 296 297 297 297 296 296 295 295 295 295 296 296 297 299 303 305 310 323 325 326
289 288 282 284 292 294 292 289 288 280 281 284 282 282 297 297 298 297 296 296 296 295 294 294 293 294 293 293 293 292 293 293 294 294 295 295 296 298 301 305 315 323 324 324
288 284 278 280 286 289 286 288 289 289 287 282 280 283 296 295 294 295 293 294 294 294 293 292 291 290 291 291 290 290 291 291 293 294 294 294 295 297 299 302 320 322 323 322
291 286 283 277 280 286 284 286 289 288 282 283 285 286 291 291 288 291 291 291 291 291 291 290 289 288 289 289 289 289 290 291 291 292 293 292 294 296 298 303 315 322 322 322
287 281 284 285 288 288 287 287 288 287 288 284 288 288 289 289 290 289 288 290 289 289 288 288 287 287 287 287 288 289 289 289 290 290 291 292 293 295 298 304 313 320 321 322
287 280 284 283 288 287 285 289 287 287 287 290 289 288 292 291 291 289 288 288 287 287 287 287 287 286 286 286 286 287 288 288 288 288 289 290 292 294 296 300 314 319 319 321
283 282 281 279 285 287 280 283 285 285 286 290 286 289 289 286 286 285 286 286 286 286 285 285 285 285 285 285 286 286 287 288 287 287 287 289 290 291 294 296 315 318 318 318
283 283 282 279 282 276 284 287 288 285 285 286 288 287 287 285 286 286 286 284 284 285 285 285 285 284 284 285 285 286 287 286 285 285 285 287 288 289 292 295 303 317 317 316
288 284 278 277 278 283 283 284 284 284 283 287 287 288 288 287 287 284 286 286 284 284 284 284 285 284 284 284 284 284 285 285 284 283 283 284 286 287 290 291 294 317 316 315
289 288 281 279 277 273 281 284 289 289 278 288 287 287 288 289 282 282 285 285 284 284 283 283 283 283 282 282 283 283 283 282 282 283 282 283 284 285 287 289 290 315 310 299
281 281 277 278 277 280 284 286 288 278 279 288 289 287 286 283 284 285 285 284 283 283 282 282 282 281 281 282 283 282 282 281 283 283 282 282 283 284 286 288 288 294 292 290
280 277 277 277 275 272 285 285 280 284 286 288 289 288 286 286 286 285 284 283 282 281 281 282 280 280 281 281 282 281 281 283 283 282 280 280 282 283 284 285 285 286 287 285
280 283 279 280 279 285 286 285 287 289 286 285 285 287 288 286 285 284 283 282 281 281 280 280 280 280 281 281 282 280 282 284 283 281 280 280 281 282 283 283 283 283 284 283
286 286 281 282 283 283 284 285 287 287 286 287 287 285 287 285 284 283 282 282 281 280 278 277 278 278 278 281 281 282 282 283 282 281 280 280 279 280 282 283 283 282 281 281
284 282 281 280 283 283 283 284 284 284 285 285 286 285 284 284 282 281 280 279 280 278 277 276 275 276 277 279 280 282 282 282 282 281 281 280 280 279 280 281 282 282 283 283
283 280 276 272 278 283 281 284 284 282 283 284 283 282 282 283 281 280 278 278 278 277 277 276 276 276 276 277 279 281 282 281 281 281 280 279 279 279 279 280 280 283 283 284

GFSCGP_sfc_thetae_123.txt.gz
Theta_e
288 282 279 282 283 284 283 281 279 283 287 285 284 284 287 290 292 294 299 300 301 303 304 306 306 305 304 307 318 328 329 334 336 335 331 330 332 333 333 335 335 335 335 334
283 280 286 288 287 285 283 280 280 283 286 285 284 283 287 289 290 294 297 300 300 301 302 304 305 304 304 303 306 322 327 331 334 336 335 334 334 332 334 334 335 335 335 335
281 284 289 287 285 283 283 282 281 282 285 285 283 281 283 289 292 296 298 300 302 300 302 304 305 305 302 303 305 317 325 328 333 334 331 327 327 326 325 327 332 334 333 335
283 287 286 284 283 284 279 286 286 285 281 275 282 272 282 287 292 295 296 297 297 297 299 302 307 309 308 308 316 318 321 322 327 328 327 326 326 324 328 329 332 331 333 333
283 285 285 283 284 288 284 289 287 284 280 278 279 277 280 288 289 293 294 296 296 296 300 305 306 306 306 307 308 309 311 312 314 319 322 323 323 325 324 324 326 326 330 331
286 290 287 286 289 290 292 288 285 283 280 273 278 278 277 285 289 292 295 295 303 303 304 304 306 305 304 305 305 306 306 306 307 310 310 310 310 314 319 321 322 323 326 329
285 287 289 290 288 291 288 281 273 271 272 272 281 279 280 288 293 294 295 302 303 304 303 302 301 301 301 301 302 303 303 302 304 304 305 306 307 308 310 317 322 323 321 324
279 276 287 292 288 286 286 281 276 268 273 276 285 277 285 294 296 301 302 302 301 299 300 299 299 300 299 299 298 299 299 299 300 300 300 301 302 304 307 312 318 323 325 326
280 281 289 291 292 291 285 282 287 280 281 278 281 285 292 296 297 297 298 298 296 296 297 296 298 298 297 297 297 297 296 297 297 298 298 298 299 299 300 304 308 311 324 326
286 279 288 291 294 292 289 290 281 282 275 275 278 280 286 291 290 293 292 292 293 294 293 294 295 294 294 295 295 295 295 294 295 296 296 297 296 297 298 301 303 307 311 323
286 284 284 289 286 285 286 286 287 287 284 278 276 281 295 292 293 291 291 291 291 290 291 291 292 293 292 292 292 292 292 292 293 293 294 294 294 295 297 298 301 304 309 313
285 284 280 283 291 293 291 287 287 281 280 283 282 282 295 294 293 293 292 292 291 291 290 290 290 291 290 290 290 289 290 290 291 292 292 293 294 295 295 297 300 304 308 314
285 282 276 278 284 288 285 288 288 289 287 283 280 281 289 291 290 290 290 290 291 291 290 289 289 288 288 289 289 289 290 290 290 290 291 292 292 293 294 295 298 302 305 318
289 283 277 272 279 285 283 286 289 288 282 283 284 283 284 286 285 287 287 288 288 289 288 288 287 287 287 287 287 288 289 289 289 289 289 290 291 291 292 294 297 301 306 318
285 279 282 283 286 286 286 286 287 285 286 283 286 284 285 285 286 285 286 287 286 286 287 286 286 286 286 286 286 287 288 288 288 288 287 289 290 291 292 294 296 299 305 317
285 279 282 281 287 286 281 284 285 284 285 288 286 283 288 287 287 286 286 286 285 285 286 286 286 285 285 285 285 286 287 287 288 287 286 288 288 289 290 292 295 298 301 316
281 281 280 278 285 286 279 280 283 283 284 286 283 285 286 284 283 283 284 284 284 284 285 285 284 283 283 283 284 284 286 287 286 286 286 286 287 287 288 290 293 296 298 313
282 282 281 279 282 274 282 286 287 284 284 285 286 285 285 284 284 284 284 283 282 283 283 283 283 282 283 283 283 285 286 285 284 284 284 284 285 285 287 289 291 293 297 307
285 282 278 276 278 281 283 283 282 282 282 286 285 287 288 287 288 282 284 284 282 282 282 283 283 282 282 282 283 284 284 283 283 282 282 282 283 284 285 287 288 291 294 300
287 285 282 279 276 272 279 284 287 288 277 287 286 285 285 286 281 281 284 283 282 282 282 281 281 281 281 281 283 282 282 282 281 281 281 282 282 283 284 285 287 289 292 304
280 279 277 277 278 279 283 285 287 277 277 286 287 286 285 282 283 283 284 283 282 281 281 281 281 280 281 281 282 280 281 281 283 282 280 280 282 283 284 284 286 287 288 289
280 278 276 277 274 271 284 284 279 283 286 285 284 287 286 285 285 284 283 282 281 279 279 279 278 279 281 281 281 280 280 282 283 282 279 279 281 282 283 283 284 285 285 286
274 283 279 280 278 284 285 285 287 287 285 285 284 285 287 285 284 283 282 281 280 279 277 277 276 277 278 280 281 280 280 281 281 279 278 278 279 281 281 282 282 283 283 282
283 284 280 281 283 283 283 285 285 286 284 285 286 284 285 283 282 281 279 279 279 277 274 274 274 275 276 279 280 281 281 282 281 278 278 278 278 279 280 281 282 281 282 282
284 282 281 280 283 283 283 283 283 284 284 284 283 282 283 281 280 279 278 277 276 275 275 274 274 274 275 277 279 281 281 281 281 280 278 278 278 278 279 280 280 280 281 282
283 280 275 269 281 282 281 283 284 280 283 283 283 281 281 280 278 278 276 276 276 275 275 275 275 275 275 276 278 279 281 281 280 279 278 278 278 278 278 278 278 281 281 282

GFSCGP_sfc_thetae_126.txt.gz
Theta_e
287 282 278 281 282 283 282 280 278 282 286 284 283 284 286 289 289 289 289 290 293 295 302 305 305 305 311 324 328 330 334 335 333 331 330 330 329 331 332 333 333 332 333 333
282 279 285 285 284 283 282 279 279 283 286 285 283 283 287 288 288 289 290 290 291 294 298 304 305 302 303 312 325 328 331 334 334 334 332 329 331 332 332 334 333 333 333 333
281 284 288 286 283 282 282 280 281 281 284 286 284 282 285 288 289 290 291 292 292 294 296 302 303 303 302 301 308 322 328 331 334 335 331 325 326 328 329 331 332 333 333 333
282 286 285 283 282 283 278 285 285 283 281 278 282 273 281 284 284 287 289 290 293 296 298 302 303 305 307 309 308 317 322 324 327 330 330 326 328 326 327 330 332 334 334 334
281 284 283 281 283 286 281 287 286 286 283 279 279 275 278 283 282 286 289 293 295 297 298 303 304 304 304 306 307 310 311 312 317 322 326 326 322 324 322 325 327 327 331 332
285 288 286 285 288 288 289 287 286 284 279 273 278 275 276 279 283 290 294 298 299 300 301 301 302 303 301 303 303 303 304 305 307 310 312 315 316 317 322 323 320 321 326 330
283 285 287 289 285 289 286 281 273 271 270 273 282 278 278 285 290 291 294 297 297 297 297 296 296 296 297 298 300 300 301 301 302 303 305 305 306 310 312 317 323 323 324 326
276 273 284 291 287 285 285 284 276 267 272 274 283 277 282 295 298 297 297 296 295 294 294 293 293 294 295 296 297 298 298 297 299 301 301 300 301 303 305 307 310 316 322 324
278 277 286 288 290 290 286 283 286 280 281 276 279 285 292 294 293 294 293 292 292 293 293 293 293 293 293 293 293 294 295 296 296 297 297 297 298 298 298 299 302 305 309 316
282 276 285 288 293 293 289 290 280 280 272 274 279 280 279 288 288 289 289 289 290 292 293 292 292 292 292 292 292 293 293 293 293 294 295 295 295 296 296 297 298 301 304 308
282 281 281 286 286 285 285 285 286 287 283 278 276 280 285 287 290 288 288 290 289 289 290 290 291 291 292 292 292 291 290 290 290 291 292 293 293 294 295 296 297 299 302 304
283 282 278 280 288 291 289 287 286 281 280 282 281 278 287 287 287 288 289 290 290 289 289 289 288 289 288 288 289 289 289 289 289 290 291 291 293 293 293 294 295 297 299 302
284 280 274 276 282 287 284 286 288 288 287 282 279 278 286 286 286 287 286 288 288 288 288 287 287 286 287 287 288 288 288 288 289 289 289 289 290 290 290 291 293 295 297 300
289 282 275 270 275 284 281 286 288 287 282 283 281 279 282 283 283 284 285 286 287 287 287 286 286 285 286 286 286 287 288 288 288 288 288 287 288 288 289 291 292 294 296 298
286 278 281 282 284 286 282 282 283 283 285 283 282 279 281 283 284 284 284 285 285 284 285 284 284 284 285 285 285 286 287 287 288 287 287 287 288 288 289 290 291 292 295 297
283 278 281 280 286 287 281 282 282 282 283 286 284 280 286 286 285 283 283 283 283 283 284 284 283 283 283 283 283 284 286 285 286 286 285 286 286 287 287 289 289 291 293 297
281 280 280 278 284 285 278 280 283 282 283 284 278 283 285 282 281 281 282 282 281 282 282 282 282 282 282 282 283 284 285 285 285 284 284 284 284 284 286 287 288 289 291 294
281 281 281 278 282 273 282 285 286 283 283 284 284 284 284 282 283 282 282 281 280 281 281 281 281 281 282 282 283 284 285 284 284 283 282 283 282 283 285 286 287 288 290 291
284 282 279 276 278 280 282 282 281 280 281 285 283 284 285 286 287 282 283 282 281 280 281 281 281 281 281 282 283 283 283 283 283 281 281 281 282 282 284 284 285 287 288 290
285 283 281 278 276 271 278 282 286 287 277 284 285 284 283 283 278 279 282 281 280 280 280 279 280 281 281 281 283 281 280 281 280 281 280 281 282 282 282 283 284 286 287 289
279 279 277 276 277 279 282 283 286 276 275 284 284 285 283 281 282 283 283 281 280 279 278 278 278 278 279 281 282 280 280 279 281 280 279 280 281 282 282 283 284 285 285 286
279 278 276 277 273 269 283 283 278 282 286 284 283 284 285 284 284 283 281 279 278 276 276 276 276 277 279 280 281 279 278 281 280 278 277 278 280 281 281 281 282 283 284 284
274 281 279 280 278 284 284 283 285 286 285 284 284 283 285 283 281 280 278 279 276 275 273 275 274 276 278 279 280 278 279 281 281 277 276 277 279 279 280 279 280 280 281 281
284 284 281 280 282 283 282 284 284 285 283 283 283 283 282 280 279 278 278 277 275 273 274 274 273 273 274 277 279 280 281 281 280 278 277 277 277 278 279 278 278 278 278 279
283 283 280 280 282 283 282 283 282 283 284 283 282 281 280 280 277 276 275 276 275 274 274 274 274 274 274 276 278 280 280 281 279 279 277 276 276 276 276 277 278 277 278 280
283 280 275 277 281 282 281 284 285 281 282 282 281 280 279 278 277 276 275 275 275 274 275 275 275 274 274 275 277 278 280 280 279 278 277 276 275 275 275 275 275 279 279 279

GFSCGP_sfc_thetae_132.txt.gz
Theta_e
296 293 290 291 291 291 289 288 288 292 295 293 292 293 296 300 300 299 300 301 302 303 305 306 307 309 309 310 311 313 323 338 340 338 337 336 335 335 338 341 341 342 340 341
293 290 292 293 292 290 290 288 289 292 294 293 293 293 297 299 299 300 300 301 302 303 303 305 306 307 308 309 310 312 317 335 338 339 339 339 338 336 337 338 340 341 338 339
290 292 293 291 290 289 290 288 289 288 292 295 293 291 294 298 301 302 302 304 306 306 305 306 304 306 307 308 310 310 314 330 337 339 340 338 339 337 335 336 337 340 342 341
291 293 290 290 289 290 286 292 291 290 289 286 293 283 292 296 297 297 297 297 296 300 305 307 309 307 306 306 309 310 314 325 336 339 337 335 334 331 333 336 337 338 341 341
289 289 289 288 289 291 289 293 292 291 290 287 288 285 290 295 288 289 293 291 291 294 300 305 308 310 309 306 307 312 314 321 334 339 338 337 334 335 335 336 337 339 339 341
291 294 292 292 293 293 294 292 293 292 288 281 287 285 289 285 286 287 289 290 289 291 294 297 302 310 311 314 315 316 316 320 331 337 338 338 336 336 338 337 338 338 338 337
287 289 293 294 291 294 293 291 285 283 282 281 288 287 284 289 288 289 287 289 288 289 291 292 294 296 299 303 309 313 311 307 311 314 317 331 339 337 337 337 334 333 331 329
283 282 290 293 290 290 291 289 284 276 280 283 290 284 287 290 291 290 289 289 288 287 288 289 291 293 295 295 299 301 302 301 303 305 306 309 313 320 319 323 329 332 332 335
283 281 289 291 294 295 289 289 292 285 287 282 287 289 292 291 289 289 287 287 285 286 286 287 289 291 293 294 294 296 298 298 300 303 305 307 308 309 313 312 317 324 328 329
286 281 287 289 296 296 293 295 286 287 278 277 284 282 281 283 285 286 284 284 285 285 285 286 287 288 291 293 294 296 297 297 298 300 302 304 306 307 308 310 312 313 317 318
289 286 286 289 289 288 290 289 288 288 286 281 280 279 285 284 285 284 285 284 285 284 284 285 285 286 289 291 292 293 293 293 296 298 300 302 302 304 305 306 308 308 309 310
290 288 283 284 291 293 292 288 289 283 281 286 284 280 288 287 287 286 285 284 285 286 284 284 285 285 286 287 290 290 292 292 295 297 298 299 300 300 301 302 302 302 306 308
291 287 282 283 288 292 287 288 288 288 287 283 281 281 288 287 286 286 284 284 284 284 284 283 283 284 284 286 286 288 289 289 290 292 293 293 296 298 298 299 297 300 301 302
292 288 283 280 283 286 284 286 287 287 283 283 280 281 283 284 283 284 284 284 284 284 283 283 283 283 283 284 285 286 287 287 288 289 290 291 293 293 294 295 296 298 300 300
291 284 286 287 288 287 284 285 285 283 285 283 281 280 282 283 283 284 284 284 284 283 283 283 283 283 283 283 284 285 286 288 289 287 288 288 290 292 294 295 297 298 298 298
290 286 287 285 288 287 283 286 286 284 283 284 284 282 287 287 286 285 285 283 282 282 282 283 283 283 283 283 284 285 285 287 288 287 287 288 290 290 290 292 295 296 296 296
288 287 285 281 287 285 281 282 284 284 284 283 280 283 286 285 284 283 283 283 281 281 282 282 283 283 283 283 284 285 286 288 287 288 287 287 287 288 289 290 292 293 293 295
288 286 286 283 285 277 282 286 287 283 283 285 285 285 286 284 285 285 284 283 281 281 282 282 282 283 283 283 284 285 287 287 287 288 287 287 287 287 289 288 289 290 291 292
292 288 284 282 283 282 283 284 282 282 280 285 283 285 287 287 288 286 285 284 282 282 282 282 283 283 283 283 284 285 285 286 286 285 286 286 286 286 287 286 286 288 289 290
290 290 286 284 279 276 283 286 287 287 280 285 285 285 285 287 283 283 283 284 283 283 283 282 283 283 282 282 283 283 282 283 282 283 284 286 286 286 285 286 286 287 288 289
284 285 282 283 281 281 285 287 288 279 279 285 286 285 285 283 283 284 285 284 283 283 282 283 283 282 281 283 283 281 281 281 282 283 284 284 285 285 285 286 286 285 285 287
283 283 283 282 280 277 288 287 283 283 286 286 286 285 284 284 284 284 284 283 282 281 281 282 282 282 282 282 282 281 281 283 283 283 283 283 284 284 283 283 284 284 283 283
282 286 285 284 282 286 289 286 287 286 284 284 285 285 285 284 283 282 282 282 281 280 279 280 280 281 282 282 281 280 281 283 283 283 282 283 284 284 284 283 282 283 283 282
286 288 285 284 284 285 286 287 288 287 285 285 285 285 285 283 283 282 282 281 280 279 279 279 279 279 279 281 281 281 282 283 283 282 283 283 284 283 284 284 283 281 280 280
289 288 285 283 285 285 286 287 286 285 285 284 284 284 283 283 281 281 281 280 280 280 280 280 278 278 278 280 281 282 282 283 282 282 282 282 284 283 283 283 282 280 280 279
290 286 283 283 287 286 285 286 287 285 284 284 283 282 282 282 280 281 280 280 280 279 279 279 279 278 278 279 279 280 281 282 281 281 281 281 281 282 282 282 282 282 280 279

GFSCGP_sfc_thetae_138.txt.gz
Theta_e
299 294 291 295 296 295 293 290 289 293 297 295 294 294 296 302 301 299 299 299 299 300 302 301 302 302 304 306 309 312 314 316 315 315 332 336 335 339 340 340 342 345 345 345
295 291 297 297 295 293 292 290 290 294 297 295 293 293 299 299 298 298 296 295 296 296 297 299 299 299 299 301 305 310 309 312 316 312 314 335 336 338 339 340 340 341 344 342
292 295 298 295 293 291 292 291 291 290 293 295 293 292 296 299 299 298 296 295 295 294 293 295 296 296 296 297 300 304 306 309 317 314 313 315 336 335 335 336 339 340 343 341
294 298 295 293 291 293 288 295 293 291 290 285 294 284 293 295 294 294 293 292 292 292 293 293 294 294 293 294 298 300 303 306 312 314 311 312 320 328 332 334 338 340 341 341
292 293 292 291 292 294 290 295 293 292 290 290 291 287 291 293 289 290 291 291 291 291 291 291 291 292 293 293 294 296 299 303 307 309 312 311 312 326 332 335 335 338 339 342
293 298 294 294 296 295 296 294 294 294 292 285 290 289 285 287 288 289 291 290 290 290 290 290 290 291 291 292 292 294 296 298 303 308 312 314 312 317 327 331 332 334 337 338
291 292 295 296 293 296 295 292 284 284 284 283 291 288 286 290 291 290 289 288 289 289 289 288 287 287 288 288 289 292 293 292 299 303 308 313 314 314 321 329 331 331 334 335
286 284 292 296 293 291 293 292 284 278 280 283 290 284 283 292 293 292 291 289 288 288 288 288 287 287 287 287 288 289 290 291 294 301 305 308 310 315 321 330 331 332 332 335
287 287 295 296 294 296 293 289 295 287 288 284 287 286 291 290 289 290 288 288 287 287 287 286 287 287 286 286 287 288 289 290 293 297 302 304 307 307 308 317 321 333 335 336
290 285 292 292 294 295 293 296 286 289 279 278 284 285 283 284 285 287 286 285 286 287 286 287 286 286 286 287 287 288 288 288 291 295 298 301 301 303 304 307 310 316 321 330
292 289 288 291 289 289 292 290 290 289 286 280 279 280 288 284 286 285 285 285 286 286 286 285 285 285 286 286 286 286 287 287 289 292 295 298 300 300 301 302 305 307 311 312
293 290 286 287 295 295 293 290 289 283 282 285 283 279 288 288 287 287 286 285 286 287 286 285 286 285 285 284 285 285 286 286 287 290 294 291 295 296 296 298 302 303 305 309
293 288 283 284 289 292 290 291 290 289 288 283 281 280 289 287 287 287 286 286 286 285 285 285 285 285 285 284 285 285 285 285 286 288 290 290 291 292 294 295 299 301 301 303
295 290 287 283 286 290 287 289 289 288 283 283 282 282 284 284 284 285 286 286 286 285 285 285 285 285 284 284 285 285 285 285 285 287 288 289 290 290 291 293 295 297 298 299
293 287 288 289 289 289 288 287 287 285 286 282 283 282 284 286 286 286 285 288 286 285 284 284 284 284 284 283 284 285 286 287 287 286 287 287 289 290 290 291 292 294 296 296
293 287 288 286 289 289 286 288 288 287 286 285 285 283 288 290 289 287 287 286 285 284 285 284 284 284 283 283 284 285 286 286 286 286 286 287 287 289 290 290 290 292 293 294
291 289 286 283 289 287 282 287 287 286 286 285 282 285 288 287 287 286 285 286 285 285 284 284 284 284 283 282 284 284 285 286 285 285 286 286 288 288 288 289 290 289 290 292
291 289 288 284 286 276 284 291 290 285 285 286 286 286 288 289 288 288 287 285 285 284 284 284 285 284 283 283 284 284 285 285 284 284 285 286 286 286 287 287 287 288 289 288
295 290 286 282 283 283 285 288 286 284 283 287 285 287 288 290 290 286 287 287 285 285 284 284 285 284 283 283 284 283 283 284 283 283 284 285 285 285 285 284 285 286 287 287
293 293 287 286 280 278 285 290 292 291 280 288 287 286 286 288 284 282 286 287 285 284 284 283 284 284 283 283 284 283 282 282 282 283 284 285 285 285 284 284 284 284 285 284
286 287 284 284 282 283 289 291 292 279 280 287 287 286 285 283 283 285 287 286 285 283 282 283 283 282 282 283 283 281 281 281 283 284 285 285 285 284 285 283 283 282 282 282
285 284 283 285 282 278 291 290 284 286 288 288 287 286 285 285 286 286 286 285 282 281 281 281 281 281 282 283 282 280 279 282 283 284 284 284 284 284 284 283 282 281 280 279
285 289 287 286 284 290 291 290 291 291 287 287 287 287 287 285 285 286 285 284 282 281 281 281 280 280 281 282 281 279 280 282 282 283 282 282 283 284 284 282 281 279 279 277
291 293 288 287 289 289 289 290 290 290 288 289 289 288 288 286 285 285 284 283 282 281 280 280 280 279 279 280 280 280 281 282 282 281 281 282 281 282 283 283 281 280 278 277
291 292 288 286 288 288 288 289 288 288 288 287 288 287 286 286 284 284 283 282 282 281 281 280 278 278 278 279 279 280 281 281 280 280 281 281 281 281 281 282 282 280 280 278
292 290 286 286 290 289 287 289 289 287 286 287 286 285 285 285 283 284 282 282 281 280 281 279 278 278 278 278 277 278 280 281 280 279 279 280 280 280 280 280 281 284 281 280

GFSCGP_sfc_thetae_141.txt.gz
Theta_e
296 290 286 290 292 293 290 287 285 287 292 291 289 288 291 294 294 291 291 291 291 291 294 295 295 295 295 294 294 295 297 298 301 303 306 310 319 331 334 338 340 341 343 342
290 288 294 296 295 292 290 287 286 290 294 290 287 286 292 294 292 291 290 290 289 290 291 292 293 292 292 293 293 293 294 296 298 302 304 308 314 329 333 335 337 339 341 342
288 292 298 295 292 290 288 287 287 287 290 289 287 285 290 293 293 292 291 290 290 289 288 289 290 289 290 290 291 291 292 294 297 300 303 306 310 321 326 331 333 336 339 341
290 295 295 292 290 290 285 292 291 289 285 280 288 277 288 289 289 290 289 288 288 288 289 289 288 288 288 288 290 290 291 293 297 297 300 303 305 307 309 321 329 332 336 338
289 293 291 290 291 293 289 294 291 289 285 283 286 280 284 288 285 286 287 287 287 287 288 287 287 287 288 288 288 289 291 292 294 295 300 302 304 309 311 321 327 330 333 337
291 296 293 292 295 294 295 291 290 290 286 276 286 284 279 282 284 286 287 286 287 286 287 287 287 288 287 287 287 288 289 289 293 294 297 300 302 305 309 312 320 326 330 333
289 290 293 294 290 293 291 286 278 276 277 278 289 283 281 286 288 287 286 285 286 286 286 286 285 285 285 286 287 288 288 288 291 292 295 299 302 304 306 311 312 320 325 328
282 279 289 294 291 289 290 288 279 275 275 277 288 279 281 289 290 289 288 287 287 285 285 285 285 285 286 286 286 287 287 288 289 291 293 295 301 302 303 304 310 319 320 326
285 285 292 294 294 292 290 285 291 284 284 276 281 283 287 288 287 288 287 286 285 285 285 285 285 286 286 286 286 287 287 288 288 289 290 293 297 299 299 303 308 313 312 313
290 283 292 292 291 291 290 292 282 284 276 274 280 280 280 282 284 286 285 284 285 286 286 285 285 285 286 286 287 287 287 287 288 288 289 291 291 296 297 302 301 303 305 308
290 287 286 290 287 286 287 287 288 286 281 274 271 275 286 284 285 284 285 285 285 285 284 284 284 285 285 285 286 286 287 287 287 287 288 289 289 293 295 296 300 301 303 304
292 289 282 285 291 293 291 290 287 277 279 281 279 275 288 285 285 286 285 283 282 285 285 285 283 284 284 284 285 285 286 286 286 286 287 288 289 291 292 293 296 297 299 301
291 285 278 282 286 290 288 289 289 287 285 279 272 273 288 286 285 286 281 282 283 284 284 284 284 282 282 282 284 285 285 285 285 286 286 286 288 290 290 290 292 294 296 298
294 288 283 275 280 286 286 288 289 286 279 276 274 277 278 281 281 283 282 283 282 280 283 284 284 282 281 281 283 284 285 285 285 285 285 285 285 288 290 290 291 291 294 293
291 284 287 288 289 288 287 288 286 284 284 280 281 279 282 283 282 280 283 283 283 282 283 284 283 282 281 282 283 284 284 285 285 285 285 285 287 286 288 289 289 289 289 292
291 284 287 284 289 287 285 287 287 286 286 285 283 282 286 290 290 285 284 282 282 282 282 283 283 282 281 281 282 283 284 284 285 285 285 286 286 286 287 287 289 288 287 286
287 285 282 280 287 284 278 282 284 284 285 284 279 282 285 286 285 282 282 283 282 281 281 283 282 281 281 281 283 282 283 285 284 284 285 285 285 285 285 285 285 286 286 286
288 286 285 281 284 275 281 289 288 281 283 282 284 283 285 286 284 283 283 282 281 281 281 282 282 281 282 282 283 283 283 284 284 284 284 285 285 283 284 282 282 284 284 284
293 288 282 281 280 281 285 287 284 282 280 285 284 286 286 286 285 282 285 283 281 280 281 282 283 282 282 282 283 282 282 282 283 283 283 284 284 283 282 281 281 282 282 282
292 291 284 281 278 275 282 289 291 288 277 287 286 286 285 284 279 278 283 282 281 280 281 281 282 282 281 281 281 279 280 281 281 282 283 284 284 283 281 281 280 280 281 280
284 283 280 279 278 281 288 290 291 277 276 287 285 285 284 279 281 284 284 281 281 280 280 281 281 280 280 281 279 277 278 279 281 283 282 283 283 284 282 281 280 279 279 278
283 280 278 280 278 275 291 289 282 280 287 286 285 286 285 285 286 286 283 280 280 279 279 280 279 279 280 279 278 276 277 280 282 281 280 280 281 282 283 280 279 279 278 277
280 286 280 281 279 286 288 286 288 287 285 286 286 287 286 285 284 283 281 280 279 277 275 278 277 278 278 278 277 276 278 280 281 278 278 278 279 279 281 279 277 277 276 275
288 292 282 283 285 285 286 287 288 287 286 287 286 286 286 283 283 282 281 280 278 274 273 273 274 277 276 276 277 277 279 280 279 277 278 278 277 278 279 280 278 276 274 273
288 288 283 283 286 286 286 286 287 285 286 285 285 284 284 283 282 281 280 279 278 277 276 274 272 275 274 275 275 276 278 280 277 277 278 278 277 276 277 278 279 276 276 276
289 284 279 276 284 283 284 287 288 284 284 285 284 282 283 282 281 280 278 278 278 277 277 275 275 275 275 274 274 275 277 280 277 276 277 277 276 277 276 275 275 280 279 278

GFSCGP_sfc_thetae_144.txt.gz
Theta_e
292 287 285 288 290 292 288 286 284 286 290 290 287 287 288 289 290 288 288 288 288 288 291 291 292 290 290 290 290 290 291 291 293 294 295 297 299 304 308 313 330 338 338 341
287 285 291 294 293 290 289 286 285 288 292 289 286 286 288 289 288 288 287 287 287 288 288 289 290 289 288 288 289 289 289 290 292 293 294 296 299 304 307 311 319 334 336 337
285 289 295 293 291 289 287 286 286 286 288 288 287 285 286 289 290 289 288 288 287 286 286 287 288 287 287 287 287 288 289 290 292 293 295 296 299 302 306 309 312 326 333 335
288 293 292 291 289 289 283 290 290 288 285 280 287 277 285 287 286 287 286 285 285 286 287 287 286 286 286 286 287 288 289 289 291 293 293 293 295 296 302 304 310 313 321 332
287 290 289 288 289 291 287 292 290 289 284 282 284 279 282 287 284 284 285 286 285 286 286 285 286 286 287 287 287 288 289 289 290 291 292 293 294 298 302 304 308 311 315 327
288 293 291 291 293 292 293 289 289 288 284 276 284 283 279 280 283 284 286 285 286 285 285 285 286 287 287 287 287 288 288 289 290 290 291 292 292 294 298 301 303 309 313 320
287 288 291 293 289 292 289 284 277 276 276 277 286 282 279 284 285 285 285 285 287 286 286 284 285 285 285 286 286 287 287 287 289 290 290 291 293 293 295 297 300 301 306 314
281 278 288 292 290 288 287 285 278 275 275 277 286 277 281 287 288 288 288 288 287 286 286 284 285 285 285 285 285 286 286 287 288 289 289 290 291 292 293 296 297 302 305 313
283 283 291 292 294 292 288 284 289 282 282 276 279 281 286 287 286 287 287 286 285 285 285 283 284 285 285 285 285 285 286 287 288 288 288 288 289 291 291 293 297 301 304 307
289 282 290 291 292 290 291 292 282 282 275 274 277 279 275 281 282 285 281 281 282 285 285 284 283 284 284 284 285 285 287 286 287 287 288 288 289 289 291 292 292 296 301 303
290 287 286 289 286 285 285 285 287 285 280 274 271 273 285 282 282 281 282 279 281 284 284 284 281 282 282 282 284 285 286 286 286 286 287 287 287 288 289 290 291 294 298 302
292 288 281 284 290 291 289 288 287 278 279 279 274 270 288 284 283 284 282 281 278 282 279 284 280 280 281 280 283 284 285 284 285 286 287 287 287 287 287 288 288 291 294 299
291 286 280 282 285 289 287 288 288 286 283 278 270 271 286 285 283 285 280 281 281 280 279 278 278 278 281 280 282 283 284 284 285 286 286 286 286 286 286 287 286 289 292 294
294 288 283 279 282 285 284 286 287 285 278 275 274 275 283 283 278 281 280 281 279 278 280 277 277 278 280 280 281 282 283 284 285 285 285 285 285 285 285 286 287 286 289 290
292 284 288 288 289 288 287 286 285 282 283 279 277 279 282 281 280 277 277 280 280 279 280 278 276 278 279 280 281 282 283 284 285 284 284 284 285 285 284 284 286 286 287 287
291 284 287 284 289 286 284 286 285 285 285 283 281 280 287 288 285 282 282 280 279 279 279 281 281 280 280 281 281 281 283 284 285 284 284 285 284 284 283 283 284 284 285 285
287 284 283 280 286 283 277 281 284 284 285 284 280 282 285 285 283 281 280 280 279 279 279 280 280 279 280 281 281 280 282 284 284 284 284 284 284 283 282 282 282 282 282 282
287 285 284 280 282 273 280 288 287 282 282 283 283 283 284 282 281 281 280 279 278 279 279 280 280 278 280 280 280 280 281 282 283 282 283 283 283 282 281 280 280 280 281 280
291 286 282 279 280 281 284 286 283 283 280 284 282 284 281 282 282 280 281 280 279 278 279 279 280 279 280 279 279 279 279 280 281 281 281 282 283 281 280 279 279 279 279 279
290 289 282 280 279 276 282 289 290 287 275 285 285 283 282 283 279 276 280 280 279 279 280 280 279 279 279 277 278 277 278 279 279 280 280 281 282 281 279 279 278 279 278 278
283 282 280 279 279 281 287 289 289 277 276 284 284 282 281 278 279 279 280 279 279 278 278 279 278 277 277 276 276 275 277 277 279 279 280 280 280 282 280 279 278 277 277 278
282 280 279 280 278 276 290 288 282 280 284 284 283 283 282 282 281 280 279 278 278 277 277 278 276 276 276 276 275 274 276 279 278 276 277 277 278 279 281 277 276 276 275 275
281 284 280 281 278 285 287 286 286 286 284 283 283 284 284 283 280 280 279 278 277 275 273 275 274 275 275 275 274 273 276 277 275 274 274 275 276 277 278 275 274 274 274 274
288 290 281 282 283 283 285 286 286 286 285 285 285 285 284 281 281 280 278 278 276 271 270 270 272 271 271 273 275 274 276 279 277 275 274 275 275 275 275 277 275 273 273 272
287 286 282 281 282 283 284 284 284 284 284 283 283 284 282 281 279 279 278 277 276 275 274 272 269 270 270 272 274 275 276 278 276 277 276 275 275 273 273 273 276 272 273 274
287 283 279 277 283 282 282 284 285 283 282 282 281 281 281 280 278 278 276 276 276 275 275 274 273 272 271 272 273 274 275 277 275 276 275 274 273 272 272 271 271 277 275 276

GFSCGP_sfc_thetae_147.txt.gz
Theta_e
290 286 283 286 288 288 287 284 282 283 288 287 286 283 285 287 288 286 286 286 286 287 289 290 290 289 289 288 288 288 289 290 290 290 290 292 293 296 299 302 305 309 313 318
286 283 289 292 291 289 287 284 283 286 290 287 285 282 285 287 287 286 286 285 285 286 287 288 288 288 287 287 287 288 288 289 290 290 291 292 294 296 299 302 305 308 310 313
283 287 292 291 289 288 286 284 284 284 286 286 285 281 284 288 288 288 287 287 286 285 285 286 287 286 287 286 286 287 288 289 290 291 291 292 293 296 298 299 301 304 307 310
286 291 290 288 288 289 283 288 288 287 283 278 285 275 282 286 285 286 285 285 285 285 286 286 285 286 286 286 287 287 288 289 290 290 290 289 289 290 293 296 299 302 305 308
287 289 289 287 289 290 286 291 288 286 282 280 281 278 280 285 283 283 284 285 284 284 286 284 286 287 287 287 286 287 289 289 290 290 290 289 288 291 294 295 298 300 302 305
288 291 290 290 292 291 291 288 287 286 283 274 282 280 277 280 282 284 285 284 287 287 287 284 286 287 287 287 287 287 287 287 289 288 289 288 288 289 290 292 293 297 299 302
286 287 289 292 287 290 288 284 276 276 275 276 285 281 279 283 284 284 284 284 285 287 286 284 284 284 285 285 285 286 286 286 287 287 287 288 289 289 289 291 292 293 297 299
280 278 287 290 289 286 285 285 278 275 275 277 284 277 279 286 287 287 287 285 285 284 286 285 282 283 283 283 284 285 285 285 286 286 286 287 289 289 289 290 291 293 294 297
281 281 289 290 292 291 286 282 288 282 281 277 278 280 285 286 285 286 285 283 281 283 284 284 282 282 281 281 283 284 284 285 285 285 287 287 288 288 288 289 291 291 293 296
288 281 289 290 291 289 290 292 283 282 277 275 277 277 276 282 282 284 278 279 280 282 282 284 280 281 281 281 284 285 285 285 285 285 286 287 287 288 288 289 289 289 290 293
289 287 285 288 286 284 285 285 286 286 281 276 273 274 280 282 282 281 280 277 278 278 279 280 277 279 279 280 284 284 284 284 284 285 286 286 287 287 287 287 288 287 289 290
288 286 281 285 290 291 289 287 287 280 280 280 275 271 285 283 283 283 281 279 276 278 276 277 278 277 278 278 281 283 284 284 285 286 286 286 286 286 285 286 286 287 287 288
290 285 278 282 286 289 287 288 288 286 283 279 273 272 284 284 283 284 278 279 279 278 275 272 275 275 276 278 280 281 283 284 284 285 285 285 285 284 283 284 285 285 286 286
294 287 283 279 282 286 284 286 288 286 279 277 275 272 282 283 279 280 281 280 277 275 276 274 275 274 274 276 279 279 281 283 284 284 284 284 283 283 282 283 284 284 284 283
290 283 286 287 288 288 287 286 285 283 283 280 278 278 281 282 279 277 277 279 278 278 279 275 280 275 277 278 279 279 280 282 284 283 283 283 283 283 282 282 282 283 283 282
291 283 286 283 288 288 285 286 285 285 284 282 280 280 284 285 283 281 281 278 278 278 279 280 280 279 279 278 278 279 279 281 283 282 282 283 282 282 281 281 281 281 281 281
287 285 283 279 285 284 279 282 284 284 284 283 279 282 283 281 281 280 279 279 279 278 279 279 278 278 279 277 278 278 279 281 281 281 282 282 282 280 280 280 280 279 280 280
286 285 284 281 282 275 280 288 287 281 282 282 282 283 283 282 280 279 279 278 278 278 278 279 278 278 278 277 278 278 279 280 280 280 280 281 282 280 279 279 278 278 279 279
291 286 282 279 279 280 284 285 283 282 280 283 282 281 280 280 278 277 279 279 278 277 277 278 278 278 276 276 277 277 278 278 278 278 279 280 280 278 278 277 277 278 278 278
289 288 283 281 278 274 282 288 289 287 278 285 283 280 279 281 278 276 278 279 278 278 278 277 277 277 275 275 276 275 275 277 276 277 278 279 279 280 277 276 276 277 277 277
283 281 281 279 278 280 287 288 288 278 277 285 283 282 281 279 279 278 279 278 277 277 277 277 276 274 274 275 274 272 275 275 275 276 277 278 278 279 277 276 276 276 276 276
282 280 278 280 278 276 290 287 282 281 282 284 283 282 281 279 279 279 278 278 277 275 275 276 274 274 274 274 273 269 274 274 273 273 273 274 275 277 277 275 274 275 275 274
279 283 280 281 280 285 286 284 285 285 283 282 282 282 280 279 279 279 278 277 276 274 272 274 271 272 273 273 272 270 275 275 273 271 270 271 272 273 275 272 271 272 273 273
286 288 281 282 283 283 284 285 285 285 283 284 284 284 282 279 279 278 278 276 275 269 268 268 270 268 269 272 275 274 276 277 276 273 272 272 269 272 271 273 271 270 272 271
286 286 281 280 281 283 283 283 284 283 283 284 284 283 281 280 278 278 277 275 274 273 273 270 267 267 268 272 273 274 275 276 275 275 274 273 273 270 269 269 273 270 272 273
286 282 279 276 283 283 282 283 283 281 281 282 281 280 280 280 279 278 276 276 274 273 273 273 272 271 271 272 272 273 275 275 274 274 273 271 271 270 269 265 266 273 274 275